CEST,Max TemperatureF,Mean TemperatureF,Min TemperatureF,Max Dew PointF,MeanDew PointF,Min DewpointF,Max Humidity, Mean Humidity, Min Humidity, Max Sea Level PressureIn, Mean Sea Level PressureIn, Min Sea Level PressureIn, Max VisibilityMiles, Mean VisibilityMiles, Min VisibilityMiles, Max Wind SpeedMPH, Mean Wind SpeedMPH, Max Gust SpeedMPH,PrecipitationIn, CloudCover, Events, WindDirDegrees
2012-4-1,46,39,32,25,22,16,75,53,32,29.98,29.90,29.83,6,6,6,15,11,25,0.00,2,,284
2012-4-2,50,42,35,34,29,21,70,59,50,29.83,29.78,29.74,6,6,6,20,12,,0.00,6,,270
2012-4-3,62,50,37,39,35,32,87,61,34,29.77,29.68,29.62,6,6,5,9,5,20,0.00,,,128
2012-4-4,64,54,44,45,39,34,81,62,32,29.86,29.70,29.59,6,6,6,23,10,,0.00,3,,264
2012-4-5,44,42,37,41,38,36,93,86,76,29.95,29.92,29.89,6,5,2,13,9,,0.00,7,Rain,7
2012-4-6,41,38,35,39,35,34,93,89,81,29.92,29.81,29.68,4,3,2,9,6,,0.00,8,Rain,317
2012-4-7,42,37,32,36,30,23,87,76,46,29.68,29.61,29.56,6,6,4,17,9,,0.00,4,Rain,266
2012-4-8,37,32,26,25,20,14,80,61,38,29.95,29.81,29.68,6,6,6,16,11,,0.00,4,Snow,313
2012-4-9,51,36,22,32,22,17,80,56,23,30.02,29.82,29.71,19,19,19,17,9,26,0.00,,,205
2012-4-10,60,49,38,41,34,28,81,59,35,29.75,29.61,29.50,16,8,6,18,9,,0.01,4,Rain,155
2012-4-11,59,47,35,45,34,25,87,58,31,29.53,29.47,29.44,19,7,6,12,6,,0.04,3,Rain,353
2012-4-12,49,44,39,43,39,34,100,85,62,29.64,29.57,29.53,19,6,4,16,10,,0.20,6,Rain,323
2012-4-13,55,46,37,41,36,32,93,71,40,29.68,29.63,29.59,19,6,3,14,7,,0.00,4,,287
2012-4-14,56,46,35,37,34,28,93,66,34,29.70,29.62,29.56,16,6,2,16,6,,0.00,3,,7
2012-4-15,49,46,42,43,40,34,100,85,62,29.68,29.60,29.56,12,5,4,21,11,,0.16,7,Rain,350
2012-4-16,44,41,37,43,35,27,100,80,43,30.00,29.83,29.68,6,6,4,22,15,,0.03,7,Rain,336
2012-4-17,47,39,31,28,26,21,81,59,33,30.06,29.90,29.71,6,6,6,10,6,,0.00,2,,237
2012-4-18,53,42,30,32,27,23,80,55,29,29.75,29.55,29.42,19,14,6,10,7,,0.00,1,,145
2012-4-19,58,46,33,43,36,28,93,67,39,29.44,29.37,29.33,12,7,4,14,6,25,0.24,4,Rain-Thunderstorm,92
2012-4-20,57,46,34,45,41,34,100,78,50,29.53,29.43,29.36,12,5,2,17,5,,0.01,2,Rain,233
2012-4-21,59,50,42,41,37,32,87,65,30,29.66,29.61,29.53,19,7,6,16,10,,0.00,1,,215
2012-4-22,53,46,39,41,38,34,93,74,46,29.80,29.72,29.62,6,6,3,22,10,28,0.20,2,Rain,227
2012-4-23,58,46,35,39,35,28,93,66,31,29.84,29.73,29.59,6,6,6,17,10,25,0.00,2,Rain,205
2012-4-24,60,48,36,45,41,36,93,75,46,29.61,29.49,29.42,16,6,4,25,9,,0.02,4,Rain,130
2012-4-25,61,52,42,43,38,34,93,65,34,29.75,29.68,29.53,19,7,6,21,15,,0.00,4,,206
2012-4-26,74,56,39,46,40,34,81,50,23,29.92,29.82,29.74,,,,12,8,,0.00,,,146
2012-4-27,78,62,46,52,47,43,82,55,32,30.06,30.01,29.92,,,,11,6,,0.00,,,133
2012-4-28,81,66,50,52,48,46,82,50,23,30.09,30.03,29.92,,,,13,8,,0.00,,,123
2012-4-29,83,70,58,52,46,41,67,43,17,29.92,29.83,29.75,,,,15,8,,0.00,,,163
2012-4-30,76,66,55,57,52,43,77,58,43,30.01,29.95,29.86,19,10,6,13,9,,0.00,1,,356